Flag for Canada Weather past 2 weeks in Maple Ridge, British Columbia, Canada

Now
61 °F

Cool.


Feels Like: 61 °F
Forecast: 59 / 67 °F
Wind: 1 mph from Northwest

Location: P. Meadows Coastal Station

Current Time: Sep 22, 2014 at 9:40:17 PM

Latest Report: Sep 22, 2014 at 9:00 PM


Visibility: N/A

Pressure: 29.93 "Hg

Humidity: 87%

Dew point: 57 °F

Location of Maple RidgeLocation

Historic Weather in Maple Ridge — Graph

°F

Maple Ridge temperature yesterday

Maximum temperature yesterday: 86 °F (at 4:00 PM)
Minimum temperature yesterday: 50 °F (at 7:00 AM)
Average temperature yesterday: 64 °F

Past Weeks' High & Low Weather Summary

 TemperatureHumidityPressure
High87 °F (Sep 15, 4:00 PM)100% (Sep 15, 7:00 AM)30.34 "Hg (Sep 15, 7:00 AM)
Low43 °F (Sep 12, 7:00 AM)17% (Sep 10, 5:00 PM)29.70 "Hg (Sep 17, 7:00 PM)
Average63 °F71%29.96 "Hg
* Reported Sep 7 8:00 PM — Sep 22 8:00 PM, Maple Ridge, Weather by CustomWeather, © 2014

Note: Actual official high and low records may vary slightly from our data, if they occured in-between our weather recording intervals... More about our weather records

Advertising

Maple Ridge weather history for previous 24 hours

 ConditionsComfort  
Time TempWeatherWind HumidityBarometerVisibility
8:00 PM
Sep 22
63 °FMild.1 mph83%29.94 "HgN/A
7:00 PM66 °FMild.3 mph73%29.94 "HgN/A
6:00 PM68 °FMild.3 mph70%29.94 "HgN/A
5:00 PM68 °FMild.5 mph68%29.95 "HgN/A
4:00 PM70 °FMild.5 mph62%29.96 "HgN/A
3:00 PM67 °FMild.6 mph72%29.96 "HgN/A
2:00 PM68 °FMild.2 mph70%29.98 "HgN/A
1:00 PM65 °FMild.3 mph74%29.98 "HgN/A
12:00 PM64 °FMild.1 mph83%29.99 "HgN/A
11:00 AM63 °FMild.3 mph85%30.00 "HgN/A
10:00 AM62 °FCool.2 mph90%29.99 "HgN/A
9:00 AM61 °FCool.7 mph90%29.96 "HgN/A
8:00 AM62 °FCool.5 mph87%29.95 "HgN/A
7:00 AM62 °FCool.5 mph84%29.94 "HgN/A
6:00 AM62 °FCool.6 mph83%29.95 "HgN/A
5:00 AM62 °FCool.6 mph84%29.95 "HgN/A
4:00 AM62 °FCool.5 mph85%29.94 "HgN/A
3:00 AM59 °FCool.3 mph90%29.93 "HgN/A
2:00 AM60 °FCool.2 mph89%29.92 "HgN/A
1:00 AM59 °FCool.3 mph90%29.90 "HgN/A
12:00 AM63 °FMild.2 mph81%29.90 "HgN/A
11:00 PM
Sep 21
63 °FMild.2 mph81%29.88 "HgN/A
10:00 PM65 °FMild.3 mph75%29.86 "HgN/A
9:00 PM67 °FMild.6 mph70%29.84 "HgN/A
Weather by CustomWeather, © 2014

See weather overviewHow to use our weather pages